Terug naar catalogus

STARLINK-37284

ActiefCommunicatieSSO
NORAD 68623·PAYLOAD·🇺🇸 United States

Gelanceerd Apr 5, 2026 vanaf Vandenberg Space Force Base

Loading…

Volgende Passages (komende 24 uur)

TLE

VersSource: CelesTrak SupGP

Epoch: Sep 15, 2026, 03:06 UTC

1 68623C 26073X   26258.12965278 -.00043410  00000+0 -13473-2 0  2587
2 68623  97.2849  96.1812 0001835  91.5595 309.8202 15.33465056    17

Volg STARLINK-37284 in realtime met AllMySat

Download on the App Store